Weather History for KP53 - December, 2012

Change the Weather History Date:

Wednesday, December 26, 2012

  Actual Average (KISQ) Record (KISQ)
Temperature  
Mean Temperature 24 °F -  
Max Temperature 30 °F 24 °F 41 °F (1949)
Min Temperature 19 °F 9 °F -13 °F (1990)
Degree Days  
Heating Degree Days 40    
Moisture  
Dew Point 18 °F    
Average Humidity 73    
Maximum Humidity 78    
Minimum Humidity 66    
Precipitation  
Precipitation 0.02 in - - ()
Sea Level Pressure  
Sea Level Pressure 30.30 in    
Wind  
Wind Speed 6 mph (East)    
Max Wind Speed 22 mph    
Max Gust Speed 30 mph    
Averages and records for this station are not official NWS values.
T = Trace of Precipitation, MM = Missing Value Source: NWS Daily Summary

Daily Weather History Graph

Daily Weather History Graph

Search for Another Location

Airport or City:

Trip Planner

Search our weather history database for the weather conditions in past years. The results will help you decide how hot, cold, wet, or windy it might be!

Date:

Astronomy

Dec. 26, 2012 Rise Set
Actual Time 8:29 AM EST 5:05 PM EST
Civil Twilight 7:54 AM EST 5:40 PM EST
Nautical Twilight 7:16 AM EST 6:19 PM EST
Astronomical Twilight 6:39 AM EST 6:55 PM EST
Moon 4:00 PM EST (12/26) 6:50 AM EST (12/26)
Length of Visible Light 9h 46m
Length of Day
8h 36m
Waxing Gibbous, 97% of the Moon is Illuminated
Dec 26
Waxing Gibbous
Dec 28
Full
Jan 4
Last Quarter
Jan 11
New
Jan 18
First Quarter

Hourly Weather History & Observations

Time (EST) Temp. Windchill Dew Point Humidity Pressure Visibility Wind Dir Wind Speed Gust Speed Precip Events Conditions
12:56 AM 19.9 °F 13.4 °F 12.0 °F 71% 30.41 in - SSE 4.6 mph - N/A   Unknown
1:56 AM 21.0 °F 16.2 °F 12.0 °F 68% 30.39 in - SSE 3.5 mph - N/A   Unknown
2:56 AM 21.0 °F 14.6 °F 12.9 °F 71% 30.39 in - South 4.6 mph - N/A   Unknown
3:56 AM 21.0 °F 16.2 °F 12.9 °F 71% 30.39 in - South 3.5 mph - N/A   Unknown
4:56 AM 21.0 °F 14.6 °F 12.9 °F 71% 30.38 in - South 4.6 mph - N/A   Unknown
6:56 AM 21.0 °F 14.6 °F 14.0 °F 74% 30.38 in - South 4.6 mph - N/A   Unknown
7:56 AM 21.0 °F 16.2 °F 14.0 °F 74% 30.37 in - SE 3.5 mph - N/A   Unknown
8:56 AM 21.9 °F 17.2 °F 15.1 °F 75% 30.35 in - SSE 3.5 mph - N/A   Unknown
9:56 AM 21.9 °F - 16.0 °F 78% 30.32 in - Calm Calm - N/A   Unknown
10:56 AM 23.0 °F - 17.1 °F 78% 30.31 in - Calm Calm - N/A   Unknown
11:56 AM 25.0 °F - 18.0 °F 75% 30.28 in - Calm Calm - N/A   Unknown
12:56 PM 26.1 °F 21.9 °F 18.0 °F 71% 30.28 in - South 3.5 mph - N/A   Unknown
1:56 PM 28.0 °F - 19.0 °F 69% 30.25 in - Calm Calm - N/A   Unknown
2:56 PM 30.0 °F 20.0 °F 19.9 °F 66% 30.24 in - NE 12.7 mph - N/A   Unknown
3:56 PM 30.0 °F 20.0 °F 19.9 °F 66% 30.24 in - NE 12.7 mph - N/A   Unknown
4:56 PM 30.0 °F 22.4 °F 19.9 °F 66% 30.25 in - ENE 8.1 mph - N/A   Unknown
5:56 PM 30.0 °F 19.1 °F 23.0 °F 75% 30.25 in - NE 15.0 mph 21.9 mph 0.01 in   Unknown
6:56 PM 28.9 °F 15.8 °F 23.0 °F 78% 30.25 in - North 20.7 mph - N/A   Unknown
7:56 PM 28.9 °F 16.1 °F 23.0 °F 78% 30.24 in - North 19.6 mph - 0.01 in   Unknown
8:56 PM 28.0 °F 14.3 °F 21.9 °F 78% 30.23 in - NNE 21.9 mph 29.9 mph N/A   Unknown
9:56 PM 28.0 °F 17.5 °F 21.9 °F 78% 30.22 in - North 12.7 mph - N/A   Unknown
10:56 PM 28.0 °F 15.3 °F 21.9 °F 78% 30.20 in - North 18.4 mph 25.3 mph N/A   Unknown
11:56 PM 28.9 °F 18.2 °F 21.0 °F 72% 30.21 in - NNE 13.8 mph - N/A   Unknown